www.pogodaiklimat.ru
ПОГОДА в Аэропорту Cheddi Jagan

Архив погоды в Аэропорту Cheddi Jagan (Гайана)

Время
(UTC), дата
09 16.05
12 16.05
15 16.05
18 16.05
21 16.05
00 17.05
03 17.05
06 17.05
09 17.05
12 17.05
15 17.05
18 17.05
21 17.05
00 18.05
03 18.05
06 18.05
09 18.05
12 18.05
15 18.05
18 18.05
21 18.05
00 19.05
03 19.05
06 19.05
09 19.05
12 19.05
15 19.05
18 19.05
21 19.05
00 20.05
03 20.05
06 20.05
09 20.05
12 20.05
15 20.05
18 20.05
21 20.05
00 21.05
03 21.05
06 21.05
09 21.05
12 21.05
15 21.05
18 21.05
21 21.05
00 22.05
03 22.05
06 22.05
09 22.05
12 22.05
15 22.05
18 22.05
21 22.05
00 23.05
03 23.05
Ветер
(напр.,м/с)
Видим. Явления Облачность Т
(С)
Тd
(С)
f
(%)
Тe
(С)
Тes
(С)
Комфортность P
(гПа)
Po
(гПа)
Тmin
(С)
Tmax
(С)
R
(мм)
R24
(мм)
S
(см)
нст 1 7000 м дымка 9/5 420 м
[Cu Sc Ci sp]
+23.7 +23.7 100 +32 +32 очень душно 1011.3 1011.2
нст 1 13 км мгла 6/3 480 м
[Cu Sc Ac cuf Ci sp]
+27.2 +25.6 91 +40 +44 очень душно 1012.6 1012.5 +22.9 3.3
СВ 2 10 км осадки на расстоянии {ливн. дождь} 6/5 540 м
[Cu Sc Ci sp]
+30.6 +25.2 73 +44 +54 очень душно 1012.5 1012.4
В 3 10 км осадки на расстоянии {ливн. дождь} 8/5 500 м
[Cb cap Ci ing]
+30.6 +24.8 71 +43 +49 очень душно 1009.9 1009.8 1
С 2 10 км мгла 9/3 500 м
[Cb cap Cs]
+29.2 +25.1 79 +42 +43 очень душно 1010.0 1009.9
СВ 2 10 км мгла 4/1 500 м
[Cu med, cong Ac cuf Ci sp]
+26.9 +25.5 92 +39 +39 очень душно 1011.5 1011.4 +32.0
СВ 2 10 км мгла 4/1 480 м
[Cu med, cong Ac cuf Ci sp]
+26.0 +25.4 97 +38 +38 очень душно 1012.6 1012.5
нст 1 10 км мгла 4/3 480 м
[Cu med, cong Ac cuf Ci sp]
+25.3 +24.7 96 +36 +36 очень душно 1011.1 1011.0
В 2 10 км мгла {ливн. дождь} 6/6 480 м
[Cu Sc Ac cuf Ci sp]
+24.3 +23.8 97 +33 +33 очень душно 1011.7 1011.6
В 2 6000 м ливневой дождь 8/8 480 м
[Cu Sc Ac cuf Ci fib]
+25.6 +24.9 96 +36 +38 очень душно 1013.3 1013.2 +24.0 17 18.2
В 3 8000 м слаб. ливневой дождь 9/8 480 м
[Cb cap Ac As Ci sp]
+27.2 +25.6 91 +40 +43 очень душно 1013.5 1013.4
СВ 3 11 км мгла {ливн. дождь} 9/8 480 м
[Cb cap Ac As Ci ing]
+27.2 +26.0 93 +41 +43 очень душно 1011.2 1011.1 4
СВ 3 10 км слаб. ливневой дождь 9/8 480 м
[Cb cap Ac As Ci ing]
+26.5 +25.4 94 +39 +39 очень душно 1010.6 1010.5
нст 1 10 км слаб. дождь {ливн. дождь} 9/8 420 м
[Cu Sc Ac As]
+25.6 +25.3 98 +37 +37 очень душно 1013.2 1013.1 +28.1 4
штиль 0 10 км мгла {дождь} 9/6 420 м
[Cu Sc Ac As]
+25.4 +25.3 99 +37 +37 очень душно 1013.8 1013.7
нст 1 10 км дымка {ливн. дождь, дождь} 9/8 420 м
[Cu Sc Ac As]
+25.4 +25.3 99 +37 +37 очень душно 1012.4 1012.3 0.0
нст 1 10 км слаб. ливневой дождь 9/8 420 м
[Cu Sc Ac cuf]
+24.8 +24.5 98 +35 +35 очень душно 1012.3 1012.2
нст 1 12 км мгла {ливн. дождь} 9/8 480 м
[Cu Sc Ac As]
+26.6 +25.0 91 +38 +39 очень душно 1014.5 1014.4 +24.0 0.2 8.6
ЮВ 3 13 км слаб. ливневой дождь 9/8 540 м
[Cu Sc Ac As]
+30.2 +25.4 76 +44 +46 очень душно 1014.5 1014.4
нст 1 13 км в посл. час гроза {ливн. дождь} 9/8 450 м
[Cb cap Ac As]
+26.1 +24.9 93 +37 +39 очень душно 1011.9 1011.8 11
В 2 13 км гроза, ливневой дождь 9/8 450 м
[Cb cap Ac As]
+26.7 +25.8 95 +40 +40 очень душно 1011.8 1011.7
В 2 10 км мгла {гроза, ливн. дождь} 9/4 480 м
[Cb cap Ac As]
+25.9 +25.4 97 +38 +38 очень душно 1013.9 1013.8 +31.1 1
СВ 4 2000 м дождь {ливн. дождь} 10/8 400 м
[Cb cap As op]
+24.6 +24.3 98 +34 +34 очень душно 1015.3 1015.2
нст 1 10 км мгла {ливн. дождь, дождь} 9/5 420 м
[Cu Sc Ac As]
+24.5 +23.9 96 +33 +33 очень душно 1012.4 1012.3 19
нст 1 10 км мгла 9/5 420 м
[Cu Sc Ac As]
+24.1 +23.6 97 +33 +33 очень душно 1013.0 1012.9
нст 1 10 км осадки на расстоянии {ливн. дождь} 9/5 450 м
[Cu Sc Ac cuf]
+26.0 +25.0 94 +37 +39 очень душно 1015.1 1015.0 +23.4 0.2 30.9
С 3 12 км мгла 9/8 540 м
[Cu Sc Ac cuf]
+29.0 +25.8 83 +43 +45 очень душно 1014.7 1014.6
ЮВ 2 7000 м слаб. ливневой дождь 9/8 450 м
[Cb cap Ac As]
+27.4 +26.2 93 +41 +43 очень душно 1012.6 1012.5 7
нст 1 10 км слаб. дождь {ливн. дождь} 9/6 420 м
[Cb cap Ac As]
+25.5 +24.8 96 +36 +36 очень душно 1012.5 1012.4
СВ 3 10 км мгла {ливн. дождь, дождь} 9/8 480 м
[Cu Sc Ac As Ci sp]
+25.2 +24.9 98 +36 +36 очень душно 1013.5 1013.4 +30.1 5
В 3 8000 м дымка 10/10 480 м
[Cu Sc Ac As]
+24.8 +24.5 98 +35 +35 очень душно 1014.8 1014.7
В 3 9000 м слаб. ливневой дождь 9/9 420 м
[Cb cap Ac As Ci sp]
+24.5 +24.4 99 +34 +34 очень душно 1012.3 1012.2 0.2
В 6 8000 м слаб. ливневой дождь 9/8 420 м
[Cb cap Ac As]
+24.0 +23.9 99 +33 +33 очень душно 1012.2 1012.1
нст 1 12 км в посл. час ливневой дождь 9/8 420 м
[Cb cap Ac As Ci ing]
+25.8 +25.5 98 +38 +39 очень душно 1013.7 1013.6 +23.4 15 26.8
В 8 14 км в посл. час ливневой дождь 9/6 540 м
[Cu Sc Ac As Ci sp]
+30.0 +25.3 76 +44 +45 очень душно 1013.3 1013.2
В 6 14 км мгла {ливн. дождь} 8/8 630 м
[Cu Sc Ac trans Ci sp]
+31.1 +24.8 69 +44 +45 очень душно 1010.6 1010.5 0.2
СВ 5 14 км мгла 9/5 600 м
[Cb cap Ac trans Cs]
+29.2 +24.4 75 +41 +41 очень душно 1009.7 1009.6
нст 1 10 км мгла {ливн. дождь} 8/3 500 м
[Cu Sc Ci sp]
+26.0 +25.9 99 +38 +38 очень душно 1011.8 1011.7 +32.1 0.0
В 2 10 км мгла 8/3 480 м
[Cu Sc Ac cuf Ci sp]
+26.0 +25.0 94 +37 +37 очень душно 1013.0 1012.9
нст 1 10 км мгла 8/4 450 м
[Cu Sc Ac cuf Ci sp]
+25.0 +24.5 97 +35 +35 очень душно 1011.4 1011.3
нст 1 10 км мгла 8/4 450 м
[Cu Sc Ac cuf Ci sp]
+24.6 +24.3 98 +34 +34 очень душно 1011.3 1011.2
В 3 10 км мгла 6/4 540 м
[Cu med, cong Ci fib]
+28.7 +26.0 85 +43 +46 очень душно 1013.2 1013.1 +24.0 0.4 0.6
В 5 11 км мгла 8/8 540 м
[Cu med, cong]
+31.8 +25.8 71 +47 +49 очень душно 1012.3 1012.2
В 6 13 км мгла {ливн. дождь} 6/6 600 м
[Cb cap Ci ing]
+32.6 +25.1 65 +47 +49 очень душно 1009.9 1009.8 0.0
СВ 5 13 км мгла 6/1 600 м
[Cb cap Ac cuf Ci ing]
+29.3 +25.6 81 +43 +44 очень душно 1009.8 1009.7
СВ 3 12 км мгла 9/6 630 м
[Cu Sc Ac As Ci sp]
+27.0 +25.7 93 +40 +40 очень душно 1011.8 1011.7 +33.0
СВ 3 10 км мгла 9/5 600 м
[Cu Sc Ac As Ci sp]
+26.4 +25.3 94 +38 +38 очень душно 1013.5 1013.4
В 3 10 км зарница {ливн. дождь} 8/5 540 м
[Cb cap Ac As Ci sp]
+25.8 +25.4 98 +38 +38 очень душно 1011.3 1011.2 0.3
10 км осадки на расстоянии н/о +25.4 +24.8 96 +36 +36 очень душно 1012.2 1012.1
ЮВ 2 13 км мгла 8/8 540 м
[Cu Sc]
+28.6 +25.4 83 +42 +43 очень душно 1014.5 1014.4 +24.1 0.3
В 4 13 км слаб. ливневой дождь 8/8 600 м
[Cu Sc Ci sp]
+27.4 +25.8 91 +41 +43 очень душно 1014.4 1014.3
В 6 15 км мгла {ливн. дождь} 5/5 600 м
[Cb cap Ci ing]
+31.0 +26.4 77 +47 +50 очень душно 1011.6 1011.5 2
СВ 6 15 км мгла 5/5 600 м
[Cb cap Ci ing]
+30.4 +25.2 74 +44 +44 очень душно 1011.0 1010.9
В 2 10 км мгла 3/3 540 м
[Cu med, cong Ci fib]
+27.5 +25.6 89 +40 +40 очень душно 1012.7 1012.6 +32.8
СВ 2 10 км мгла 3/1 500 м
[Cu med, cong Ci fib]
+26.5 +25.2 93 +38 +38 очень душно 1013.6 1013.5
Местоположение метеостанции Аэропорт Cheddi Jagan (Гайана): широта 6.50 долгота -58.25 высота над уровнем моря 29 м.
В архиве по умолчанию представлена погода в Аэропорту Cheddi Jagan за последнюю неделю. Архивные данные за месяц целиком и за предыдущие месяцы, начиная с января 2011 года, Вы можете получить, выбрав интересующий диапазон дат из раскрывающегося списка и нажав кнопку "Найти!".
*Определитесь, кто Вы:
Внимание! Время в таблицах - всемирное. Для получения местного времени необходимо прибавить поправку, которая равна -4 ч.
Некоторые строки с данными для отдельных станций могут быть выделены курсивом. Это означает, что фактические данные отсутствуют по различным причинам, а приведенные значения являются расчетными модельными данными для данного пункта наблюдений.
Смотрите также архив погоды в соседних городах и на ближайших метеорологических станциях:
Партнеры нашего сайта:      
Пояснения к столбцам:
  • Ветер - указаны скорость ветра в м/с - средняя за 10 мин, порывы в срок и между сроками (в фигурных скобках) и направление, откуда дует ветер: С - северный,
  • СВ - северо-восточный, В - восточный, ЮВ - юго-восточный, Ю - южный, ЮЗ - юго-западный, З - западный, СЗ - северо-западный.
  • Видимость - горизонтальная дальность видимости в метрах или километрах. При видимости от 1 до 10 км при отсутствии осадков обычно наблюдается дымка, при ухудшении видимости до 1 км и менее - туман. В сухую погоду видимость может ухудшаться дымом, пылью или мглою.
  • Явления - указаны атмосферные явления, наблюдавшиеся в срок или в последний час перед сроком; фигурными скобками обозначены явления, наблюдавшиеся между сроками (за 1-3 часа до срока); квадратными скобками обозначены град или гололедные отложения с указанием их диаметра в мм.
  • Облачность - указаны через наклонную черту общая и нижняя облачность в баллах и высота нижней границы облаков в метрах; квадратными скобками обозначены формы облаков: Ci - перистые, Cs - перисто-слоистые, Cc - перисто-кучевые, Ac - высококучевые, As - высокослоистые, Sc - слоисто-кучевые, Ns - слоисто-дождевые, Cu - кучевые, Cb - кучево-дождевые. Подробнее классификацию облаков см. в Атласе облаков (PDF).
  • T - Температура воздуха - температура, измеренная на высоте 2 м над землей.
  • Td - Температура точки росы - температура, при понижении до которой содержащийся в воздухе водяной пар достигнет насыщения.
  • f - Относительная влажность воздуха - влажноcть воздуха, измеренная на высоте 2 м над землей.
  • Te - Эффективная температура - температура, которую ощущает одетый по сезону человек в тени. Характеристика душности погоды. При расчете учитывается влияние влажности воздуха и скорости ветра на теплоощущения человека.
  • Tes - Эффективная температура на солнце - температура, которую ощущает человек, с поправкой на солнечный нагрев. Характеристика знойности погоды. Зависит от высоты солнца над горизонтом, облачности и скорости ветра. Ночью, в пасмурную погоду, а также при ветре 12 м/с и более поправка равна нулю.
  • P - Атмосферное давление - приведенное к уровню моря атмосферное давление.
  • Po - Атмосферное давление - измеренное на уровне метеостанции атмосферное давление.
  • Tmin - Минимальная температура - минимум температуры воздуха на высоте 2 м над землей.
  • Tmax - Максимальная температура - максимум температуры воздуха на высоте 2 м над землей.
  • R - Количество осадков - Количество выпавших осадков за период времени, мм. При наведении курсора мыши на число - период времени, за который выпало указанное количество осадков.
  • R24 - Количество осадков - Количество выпавших осадков за 24 часа, мм.
  • S - Снежный покров - Высота снежного покрова, см. При наведении курсора мыши на число - состояние снежного покрова и степень покрытия местности в баллах.